Tracking 28125 objects as of 4-Oct-2023
HD Live streaming from Space Station
objects crossing your sky now

KEPLER-15 (SUDORMRF)

Track KEPLER-15 (SUDORMRF) now!
10-day predictions


NORAD ID: 47461
Int'l Code: 2021-006BA
Perigee: 466.9 km
Apogee: 475.8 km
Inclination: 97.4 °
Period: 93.9 minutes
Semi major axis: 6842 km
RCS: Unknown
Launch date: January 24, 2021
Source: United States (US)
Launch site: ()
Your satellite tracking list
Your tracking list is empty




NASA's NSSDC Master Catalog

Two Line Element Set (TLE):
1 47461U 21006BA  23276.42252890  .00045538  00000-0  13841-2 0  9997
2 47461  97.3715 332.5989 0006469  82.4573 277.7405 15.33889807149175
Source of the keplerian elements: AFSPC